Other Public Products
Issued by NWS Grand Forks, ND

Home | Current Version | Previous Version | Text Only | Print | Product List | Glossary Off
Versions: 1 2 3 4 5 6 7 8 9 10 11 12 13 14 15 16 17 18 19 20 21 22 23 24 25 26 27 28 29 30 31 32 33 34 35 36 37 38 39 40 41 42 43 44 45 46 47 48 49 50

000
FPUS83 KFGF 190210
OPUFGF
PRAIRIE TO PINES WEATHER ROUNDUP
NATIONAL WEATHER SERVICE EASTERN NORTH DAKOTA/GRAND FORKS ND
800 PM CST SAT FEB 18 2017

 **SATELLITE DATA USED TO AUGMENT SKY COVER AT AUTOMATED STATIONS**
 *****  WEATHER ACROSS EASTERN NORTH DAKOTA  *****

CITY           SKY/WX    TMP DP  RH WIND       PRES   REMARKS
GRAND FORKS    MOCLDY    35  30  82 CALM      29.80R
GRAND FORKS AF FAIR      34  31  90 CALM      29.81R
GRAND CITY NWS NOT AVBL
BUXTON         NOT AVBL
DEVILS LAKE    CLOUDY    33  32  96 NE7       29.77F
FARGO          FAIR      38  37  97 NE3       29.79R
WAHPETON ARPT  FAIR      39  36  87 SE5       29.78S
$$

 *****  WEATHER ACROSS CENTRAL AND WESTERN NORTH DAKOTA  *****

CITY           SKY/WX    TMP DP  RH WIND       PRES   REMARKS
JAMESTOWN      FAIR      34  33  96 E5        29.74F
BISMARCK       CLOUDY    37  33  85 E9        29.69S
MINOT          CLOUDY    34  32  92 N5        29.73S
MINOT AFB      NOT AVBL
GARRISON         N/A     35  31  85 E12       29.68F
WILLISTON      FAIR      35  31  85 NE8       29.68R
DICKINSON      FAIR      32  29  88 NE9       29.60F WCI  24
HETTINGER      FAIR      37  31  78 NE9       29.61R
$$

 *****  OTHER OBSERVATIONS NORTHEAST NORTH DAKOTA  *****

CITY           SKY/WX    TMP DP  RH WIND       PRES   REMARKS
WALHALLA       NOT AVBL
LANGDON        NOT AVBL
CAVALIER       MOCLDY    34  32  93 NW3       29.79R
GRAFTON        FAIR      36  34  93 NW5       29.82R
CANDO          NOT AVBL
FORT TOTTEN      N/A     36  34  91 CALM      29.95S
ROLLA          CLOUDY    32  32 100 CALM      29.77S
RUGBY            N/A     32  32 100 E8        29.74F WCI  25
 ***** THE ABOVE OBSERVATIONS ARE NON NWS ARE NOT QUALITY
        CONTROLLED AND MAY MIS-REPORT RAIN FOR SNOW...
$$

 *****  OTHER OBSERVATIONS SOUTHEAST NORTH DAKOTA *****

CITY           SKY/WX    TMP DP  RH WIND       PRES   REMARKS
COOPERSTOWN    FAIR      34  32  93 CALM      29.79S
VALLEY CITY    CLOUDY    36  36 100 NE7       29.78F
OAKES          NOT AVBL
GWINNER        FAIR      37  37 100 CALM      29.77R
SHEYENNE NWR     N/A     38  35  89 E5        29.95S
BUFFALO        NOT AVBL
WYNDMERE       NOT AVBL
 ***** THE ABOVE OBSERVATIONS ARE NON NWS ARE NOT QUALITY
       CONTROLLED AND MAY MIS-REPORT RAIN FOR SNOW...
$$

  *****  WEATHER ACROSS NORTHERN MINNESOTA  *****

CITY           SKY/WX    TMP DP  RH WIND       PRES   REMARKS
FLAG ISLAND    FAIR      36  28  75 NW7       29.75R
WARROAD        FAIR      34  30  86 W6        29.77R
ROSEAU         FAIR      36  30  80 W6        29.78R
HALLOCK        FAIR      30  28  93 CALM      29.79R
THF RVR FALLS  FAIR      35  32  88 SW3       29.80R
HALSTAD          N/A     35  34  96 SW2         N/A
FOSSTON        FAIR      34  32  93 CALM      29.79S
BAUDETTE       FAIR      36  30  79 W6        29.75R
WASKISH        FAIR      36  32  87 W6        29.78R
CROOKSTON      FAIR      36  34  93 CALM      29.81R
$$
  *****  WEATHER ACROSS CENTRAL AND WEST MINNESOTA  *****

CITY           SKY/WX    TMP DP  RH WIND       PRES   REMARKS
BEMIDJI        FAIR      36  32  86 SW3       29.78S
PARK RAPIDS    FAIR      40  31  70 CALM      29.78S
WADENA         FAIR      37  34  87 CALM      29.79S
DETROIT LAKES  FAIR      37  34  87 CALM      29.80S
MOORHEAD       FAIR      37  37 100 CALM      29.81R
FERGUS FALLS   FAIR      43  37  81 SE6       29.81F
ELBOW LAKE     FAIR      40  38  92 E7        29.79F
MORRIS MN      FAIR      39  37  93 SE9       29.79F
STAPLES        FAIR      37  34  87 CALM      29.80R
WHEATON        FAIR      39  36  87 SE10      29.79F
$$
  *****  WEATHER ELSEWHERE ACROSS MINNESOTA  *****

CITY           SKY/WX    TMP DP  RH WIND       PRES   REMARKS
DULUTH         FAIR      43  30  60 W12       29.75R
INTRNTL FALLS  FAIR      38  29  70 W6        29.74R
ELY            FAIR      41  30  65 W8        29.71R
CLOQUET        FAIR      45  27  49 W9G16     29.77R
BRAINERD       MOCLDY    44  35  70 W5        29.80R
HIBBING        FAIR      40  30  67 W6        29.76R
ALEXANDRIA     FAIR      42  39  89 S5        29.81F
SAINT CLOUD    FAIR      42  37  82 SW5       29.82R
MINNEAPOLIS    MOCLDY    49  36  61 W5        29.83R
$$

  *****  WEATHER ACROSS SOUTH DAKOTA  *****

CITY           SKY/WX    TMP DP  RH WIND       PRES   REMARKS
SIOUX FALLS    MOCLDY    41  38  89 CALM      29.80R
BROOKINGS      FAIR      44  38  79 SE7       29.78F
WATERTOWN      FAIR      36  35  96 CALM      29.77S
HURON          FAIR      46  38  73 SE13      29.72F
SISSETON         N/A     40  37  89 S10       29.75F
ABERDEEN       FAIR      37  33  85 NE6       29.72R
MITCHELL       FAIR      47  39  74 SE13      29.75F
PIERRE         FAIR      47  34  60 SE16      29.64S
MOBRIDGE       FAIR      41  32  70 SE8       29.62F
RAPID CITY     FAIR      47  30  51 E7        29.59S
$$

  *****  SOME WEATHER IN NEARBY STATES *****

CITY           SKY/WX    TMP DP  RH WIND       PRES   REMARKS
GLASGOW MT     FAIR      35  30  82 E18       29.58S WCI  24
GREAT FALLS MT CLOUDY    50  30  46 S9        29.39S
CHEYENNE WY    FAIR      46  20  35 NW5       29.70S
SCOTTSBLUFF NE FAIR      51  29  42 E13       29.67R
OMAHA NE       MOCLDY    51  33  50 CALM      29.80S
DES MOINES IA  FAIR      53  34  48 E3        29.83R
DAVENPORT IA   FAIR      45  35  68 NW5       29.82R
CHICAGO IL     FAIR      52  36  54 CALM      29.79R
EAU CLAIRE WI  FAIR      41  34  76 SW5       29.80S
LA CROSSE WI   FAIR      42  32  67 CALM      29.82R
$$

  *****  SOME NATIONAL WEATHER *****

CITY           SKY/WX    TMP DP  RH WIND       PRES   REMARKS
LA GUARDIA NY  MOCLDY    61  32  33 SW8       29.67R
RALEIGH NC     CLOUDY    63  33  32 SW15      29.89R
ATLANTA GA     LGT RAIN  59  49  69 CALM      29.98R
NEW ORLEANS LA FAIR      64  59  83 SE7       29.95R
OKLAHOMA CITY  FAIR      54  49  83 SE6       29.83R
ALBUQUERQUE NM MOCLDY    50  32  50 SE6       29.77S
SALT LAKE CITY CLOUDY    52  35  52 S9        29.59R
LOS ANGELES CA FAIR      57  52  83 W13       29.61R
BOISE ID       CLOUDY    48  39  71 SE12      29.43R
SEATTLE WA     CLOUDY    44  44 100 S5        29.42R FOG
$$

*** WEATHER ACROSS MANITOBA...SASKATCHEWAN AND ONTARIO ***
                ***ONTARIO***

CITY           SKY/WX    TMP DP  RH WIND       PRES   REMARKS
GERALDTON      CLOUDY    39  30  70 NW14G28   29.53R
THUNDER BAY    PTCLDY    45  30  57 W13       29.64R
SIOUX LOOKOUT  CLOUDY    37  27  65 NW14G20   29.68R
TORONTO        CLEAR     43  36  75 W10       29.64R
BIG TROUT LK   CLOUDY    25  23  93 N6        29.61R WCI  18
PICKLE LAKE    CLOUDY    34  27  75 NW13G22   29.59R WCI  25
DRYDEN         CLOUDY    37  30  75 NW10G17   29.70R
KENORA         PTCLDY    36  28  75 NW7       29.73R
$$
                *** MANITOBA***

CITY           SKY/WX    TMP DP  RH WIND       PRES   REMARKS
BRANDON        CLOUDY    32  30  93 SW6       29.77R
DAUPHIN        CLEAR     34  28  80 W9        29.76R
ISLAND LAKE    FLURRIES  23  19  86 NW9       29.73R WCI  13
PILOT MOUND      N/A     32  30  93 NW3         N/A
THE PAS        CLEAR     30  25  80 NE2       29.78R
THOMPSON       CLOUDY    18  14  86 N5        29.78R WCI  11
WINNIPEG       MOCLDY    30  28  93 W6        29.78S WCI  24
LYNN LAKE      CLOUDY    19  18  93 W7        29.77R WCI  10
CHURCHILL      FLURRIES   5   1  85 E18       29.85R WCI -15
GILLAM         FLURRIES  16  10  79 N10       29.75R WCI   3
$$
                ***SASKATCHEWAN***

CITY           SKY/WX    TMP DP  RH WIND       PRES   REMARKS
ESTEVAN        MOCLDY    34  32  93 E12       29.70F
KINDERSLEY     CLOUDY    34  32  93 E18       29.56F WCI  23
LLOYDMINSTER   CLOUDY    30  30 100 E10       29.62S FOG     WCI  21
PRINCE ALBERT  MOCLDY    25  23  93 NE2       29.74S
REGINA         MOCLDY    32  30  93 E8        29.71S WCI  25
YORKTON        CLEAR     34  30  86 CALM      29.74R



USA.gov is the U.S. government's official web portal to all federal, state and local government web resources and services.